Elkins, WV

1:51 PM EDT on July 25, 2017 (GMT -0400)
Elkins-Randolph County

Weather History for KEKN - October, 2013

Change the Weather History Date:

Saturday, October 26, 2013

  Actual Average Record
Temperature  
Mean Temperature 37 °F 48 °F  
Max Temperature 53 °F 61 °F 80 °F (1991)
Min Temperature 20 °F 35 °F 17 °F (1930)
Degree Days  
Heating Degree Days 28 17  
Month to date heating degree days 285 342  
Since 1 July heating degree days 421 502  
Cooling Degree Days 0 0  
Month to date cooling degree days 10 0  
Year to date cooling degree days 533 471  
Moisture  
Dew Point 21 °F    
Average Humidity 59    
Maximum Humidity 92    
Minimum Humidity 26    
Precipitation  
Precipitation 0.00 in 0.10 in 0.90 in (1939)
Month to date precipitation 1.19 2.36  
Year to date precipitation 36.47 38.80  
Snow  
Snow 0.00 in - - ()
Month to date snowfall T  
Since 1 September snowfall T  
Snow Depth 0.00 in    
Sea Level Pressure  
Sea Level Pressure 30.18 in    
Wind  
Wind Speed 6 mph (SW)    
Max Wind Speed 18 mph    
Max Gust Speed 32 mph    
Visibility 10 miles    
Events      
T = Trace of Precipitation, MM = Missing Value Source: NWS Daily Summary

Daily Weather History Graph

Daily Weather History Graph

Search for Another Location

Airport or City:

Trip Planner

Search our weather history database for the weather conditions in past years. The results will help you decide how hot, cold, wet, or windy it might be!

Date:

Astronomy

Oct. 26, 2013 Rise Set
Actual Time 7:40 AM EDT 6:25 PM EDT
Civil Twilight 7:13 AM EDT 6:53 PM EDT
Nautical Twilight 6:41 AM EDT 7:24 PM EDT
Astronomical Twilight 6:10 AM EDT 7:55 PM EDT
Moon No Moon Rise 1:55 PM EDT (10/26)
Length of Visible Light 11h 39m
Length of Day
10h 45m
Waning Gibbous, 53% of the Moon is Illuminated
Oct 26
Waning Gibbous
Oct 26
Last Quarter
Nov 3
New
Nov 10
First Quarter
Nov 17
Full

Hourly Weather History & Observations

Time (EDT) Temp. Windchill Dew Point Humidity Pressure Visibility Wind Dir Wind Speed Gust Speed Precip Events Conditions
12:51 AM 24.1 °F - 21.0 °F 88% 30.38 in 10.0 mi Calm Calm - N/A   Partly Cloudy
1:51 AM 25.0 °F - 21.9 °F 88% 30.36 in 10.0 mi Calm Calm - N/A   Overcast
2:51 AM 23.0 °F - 19.9 °F 88% 30.35 in 10.0 mi Calm Calm - N/A   Clear
3:51 AM 23.0 °F - 19.9 °F 88% 30.33 in 10.0 mi Calm Calm - N/A   Clear
4:51 AM 21.0 °F - 19.0 °F 92% 30.31 in 10.0 mi Calm Calm - N/A   Clear
5:51 AM 21.0 °F - 18.0 °F 88% 30.30 in 10.0 mi Calm Calm - N/A   Clear
6:51 AM 19.9 °F - 17.1 °F 89% 30.30 in 10.0 mi Calm Calm - N/A   Clear
7:51 AM 21.0 °F - 18.0 °F 88% 30.29 in 10.0 mi Calm Calm - N/A   Clear
8:51 AM 26.1 °F - 23.0 °F 88% 30.29 in 10.0 mi Calm Calm - N/A   Clear
9:51 AM 34.0 °F - 28.0 °F 79% 30.26 in 10.0 mi Calm Calm - N/A   Clear
10:51 AM 39.9 °F 35.8 °F 25.0 °F 55% 30.23 in 10.0 mi Variable 5.8 mph - N/A   Clear
11:51 AM 44.1 °F 38.6 °F 24.1 °F 45% 30.18 in 10.0 mi SSW 10.4 mph - N/A   Clear
12:51 PM 46.9 °F - 21.0 °F 36% 30.14 in 10.0 mi SW 12.7 mph 19.6 mph N/A   Clear
1:51 PM 48.9 °F - 21.0 °F 33% 30.11 in 10.0 mi Variable 6.9 mph - N/A   Clear
2:51 PM 50.0 °F - 19.0 °F 29% 30.07 in 10.0 mi SSW 11.5 mph - N/A   Clear
3:51 PM 52.0 °F - 17.1 °F 25% 30.06 in 10.0 mi West 13.8 mph 17.3 mph N/A   Mostly Cloudy
4:51 PM 50.0 °F - 19.0 °F 29% 30.06 in 10.0 mi WSW 6.9 mph - N/A   Overcast
5:51 PM 48.9 °F - 19.9 °F 32% 30.04 in 10.0 mi SSW 6.9 mph - N/A   Overcast
6:51 PM 48.9 °F - 19.0 °F 31% 30.02 in 10.0 mi South 6.9 mph - N/A   Overcast
7:51 PM 48.9 °F - 21.9 °F 35% 30.03 in 10.0 mi SW 10.4 mph 19.6 mph N/A   Overcast
8:51 PM 50.0 °F - 25.0 °F 38% 30.03 in 10.0 mi SW 12.7 mph 20.7 mph N/A   Overcast
9:51 PM 48.9 °F - 25.0 °F 39% 30.06 in 10.0 mi West 15.0 mph 31.1 mph N/A   Overcast
10:51 PM 46.9 °F - 26.1 °F 44% 30.08 in 10.0 mi West 10.4 mph 21.9 mph N/A   Overcast
11:51 PM 45.0 °F 40.6 °F 25.0 °F 46% 30.07 in 10.0 mi West 8.1 mph - N/A   Scattered Clouds